Rbgn^[z[y[W
メイン
   新天体発見情報
     Comet P/2011 WG113 = 2017 U6 (PANSTARRS)
投稿するにはまず登録を

スレッド表示 | 古いものから 前のトピック | 次のトピック | 下へ
投稿者 スレッド
佐藤裕久
投稿日時: 2018-3-5 21:21
モデレータ
登録日: 2005-6-12
居住地: 日本
投稿: 2505
オンライン
Comet P/2011 WG113 = 2017 U6 (PANSTARRS)

2011年11月、Haleakala にある1.8-m Pan-STARRS1望遠鏡で得た露出から小惑星状天体が発見されていた。
そして、小惑星仮符号 2011 WG113が与えられ、2011年の発見観測がMPS 402689に発表されていた。
2017年10月21日、D. C. Fulsによって、Mt Lemmon の1.5-m 反射望遠鏡で得られた画像から再発見されて
いた(MPS 839235)。
G. J. Leonardの報告によると、2018年2月8.4日UT、Catalinaの0.68-m Schmidt望遠鏡で得た4枚加えた
30秒のCCD露出から、拡散した光度16.2-16.3等、直径12"-15" のコマに加え、p.a.270°に約25"-30"の
広い扇状の尾が見える。2月26.3日、Leonardが、Mt Lemmon 1.5-m 反射望遠鏡で得た4枚加えた30秒のCCD
露出から直径8"-10" (光度16.5-16.7等)の明るいコマとp.a.260°に20"-24"の広い尾が見えた。

発見位置は次のとおり、

     2011 UT             R.A. (2000) Decl.       Mag.
     Nov. 24.29304    3 26 37.85   + 9 33 13.0   21.3
          24.30600    3 26 36.86   + 9 33 12.5   20.9
          24.31717    3 26 36.03   + 9 33 11.9   20.7
     Dec.  2.25712    3 17 01.47   + 9 31 29.1   21.7
           2.26987    3 17 00.56   + 9 31 29.4   21.5
           2.29521    3 16 58.70   + 9 31 29.9   20.9

     2017 UT             R.A. (2000) Decl.       Mag.   Observer
     Oct. 21.43407    7 50 38.96   +19 56 16.3   21.4   Fuls
          21.43926    7 50 39.71   +19 56 15.8   21.8     "
          21.44442    7 50 40.38   +19 56 15.3   21.7     "
          21.44961    7 50 41.12   +19 56 15.3   21.8     "

連結軌道要素と位置推算表は次のとおり、

Orbital elements:
    P/2011 WG113 = 2017 U6 (PANSTARRS)
Epoch 2012 June 2.0 TT = JDT 2456080.5
T 2012 June 2.37744 TT                                  MPCW
q   1.3606682            (2000.0)            P               Q
n   0.17328424     Peri.   66.25738     -0.88359474     -0.43602694
a   3.1863734      Node    87.51474     +0.34272400     -0.85062237
e   0.5729728      Incl.    9.83827     +0.31906204     -0.29380622
P   5.69
From 169 observations 2011 Nov. 24-2018 Feb. 26, mean residual 0".5.

    P/2011 WG113 = 2017 U6 (PANSTARRS)
Epoch 2018 Feb. 11.0 TT = JDT 2458160.5
T 2018 Feb. 10.75970 TT                                 MPCW
q   1.3591139            (2000.0)            P               Q
n   0.17336455     Peri.   66.40019     -0.88412664     -0.43496376
a   3.1853893      Node    87.44212     +0.34164311     -0.85096362
e   0.5733288      Incl.    9.83640     +0.31874766     -0.29439335
P   5.69
From 169 observations 2011 Nov. 24-2018 Feb. 26, mean residual 0".5.

    P/2011 WG113 = 2017 U6 (PANSTARRS)
Epoch 2023 Oct. 23.0 TT = JDT 2460240.5
T 2023 Oct.  9.38545 TT                                 MPCW
q   1.3213656            (2000.0)            P               Q
n   0.17577923     Peri.   67.77482     -0.88580700     -0.43154830
a   3.1561503      Node    86.30577     +0.33727342     -0.85124660
e   0.5813363      Incl.    9.84467     +0.31873594     -0.29857209
P   5.61
From 169 observations 2011 Nov. 24-2018 Feb. 26, mean residual 0".5.

    P/2011 WG113 = 2017 U6 (PANSTARRS)
Epoch 2018 Mar. 23.0 TT = JDT 2458200.5
T 2018 Feb. 10.76240 TT                                 MPCW
q   1.3591183            (2000.0)            P               Q
n   0.17335253     Peri.   66.40359     -0.88414175     -0.43493332
a   3.1855365      Node    87.44071     +0.34161267     -0.85097404
e   0.5733471      Incl.    9.83637     +0.31873838     -0.29440822
P   5.69
From 169 observations 2011 Nov. 24-2018 Feb. 26, mean residual 0".5.

Ephemeris:
    P/2011 WG113
Date    TT    R. A. (2000) Decl.     Delta      r     Elong.  Phase   m1
2018 01 28    12 18 52.7 +22 05 44   0.5143  1.3678   128.9    34.1  16.9
...
2018 02 12    12 53 30.6 +23 34 29   0.4749  1.3592   133.7    31.7  16.7
...
2018 02 20    13 07 19.2 +24 14 35   0.4637  1.3630   136.5    30.0  16.7
...
2018 02 26    13 15 09.5 +24 36 35   0.4595  1.3697   138.8    28.4  16.7
2018 02 27    13 16 14.9 +24 39 21   0.4591  1.3711   139.2    28.1  16.7
2018 02 28    13 17 16.7 +24 41 50   0.4589  1.3727   139.6    27.9  16.7
...
2018 03 06    13 22 10.1 +24 50 06   0.4594  1.3836   142.1    26.1  16.7
...
2018 03 14    13 25 24.1 +24 40 23   0.4657  1.4028   145.5    23.7  16.8
...
2018 03 29    13 23 41.8 +23 03 02   0.4972  1.4521   150.6    19.7  17.1

(CBET 4490、MPEC 2018-D88)

スレッド表示 | 古いものから 前のトピック | 次のトピック | トップ

投稿するにはまず登録を
 
© 1999 Tsutomu Seki.